M I D A S
Marine Information and Data Acquisition System
Tripno 903 of the Zeeleeuw from 2005-05-24 06:47:01 to 2005-05-24 14:47:27
Back to CruiseResearch ActivitiesStationsMapUnderway DataData graphs

EquipmentUnitsComments
TimeDGPSUTC
LatitudeDGPSDM.mWGS84
LongitudeDGPSDM.mWGS84
SpeedMeteo Stationm/sRelative wind speed
DirectionMeteo StationdegRelative wind direction
TemperatureMeteo Stationdeg CelciusAir temperature
PressureMeteo StationPaAtmospheric pressure
HumidityMeteo Station%Relative humidity
Missing or incorrect values are displayed as -999
Metereological data collected by the RV Zeeleeuw from 2005-05-24 05:41:57 to 2005-05-24 14:51:47
                                                                                    Next 1000 lines
Time Latitude Longitude Speed Direction Temperature Pressure Humidity
2005-05-24 05:42:07 51°13.608 2°56.108 3.4 68 11.3 101950 81
2005-05-24 05:42:12 51°13.597 2°56.107 4.9 82 11.3 101950 81
2005-05-24 05:42:17 51°13.597 2°56.107 4.4 71 11.3 101960 81
2005-05-24 05:42:22 51°13.596 2°56.108 4.2 86 11.3 101960 81
2005-05-24 05:42:27 51°13.597 2°56.108 4.5 92 11.3 101950 81
2005-05-24 05:42:32 51°13.597 2°56.108 2.9 105 11.3 101950 81
2005-05-24 05:42:37 51°13.597 2°56.108 2.2 79 11.3 101960 81
2005-05-24 05:42:42 51°13.597 2°56.108 2.3 61 11.3 101960 81
2005-05-24 05:42:47 51°13.597 2°56.108 2.3 69 11.3 101950 81
2005-05-24 05:42:52 51°13.597 2°56.108 1.9 61 11.3 101950 81
2005-05-24 05:42:57 51°13.597 2°56.108 2.3 59 11.3 101950 81
2005-05-24 05:43:02 51°13.597 2°56.109 3.1 18 11.3 101950 81
2005-05-24 05:43:07 51°13.598 2°56.109 3 63 11.3 101950 81
2005-05-24 05:43:12 51°13.598 2°56.109 3.3 92 11.3 101950 81
2005-05-24 05:43:17 51°13.598 2°56.109 2.7 63 11.3 101960 81
2005-05-24 05:43:22 51°13.598 2°56.109 3.1 84 11.3 101960 81
2005-05-24 05:43:27 51°13.598 2°56.109 2.9 74 11.3 101960 81
2005-05-24 05:43:32 51°13.598 2°56.109 2.6 65 11.3 101960 81
2005-05-24 05:43:37 51°13.598 2°56.109 4 77 11.3 101960 81
2005-05-24 05:43:42 51°13.597 2°56.109 4.6 79 11.3 101960 81
2005-05-24 05:43:47 51°13.597 2°56.109 4.1 76 11.3 101950 81
2005-05-24 05:43:52 51°13.597 2°56.109 2.9 72 11.3 101950 81
2005-05-24 05:43:57 51°13.597 2°56.11 2.5 73 11.3 101950 81
2005-05-24 05:44:02 51°13.597 2°56.109 2.5 83 11.3 101950 81
2005-05-24 05:44:07 51°13.597 2°56.109 2.3 85 11.3 101960 81
2005-05-24 05:44:12 51°13.597 2°56.109 3 79 11.3 101960 81
2005-05-24 05:44:17 51°13.597 2°56.109 3 76 11.3 101950 81
2005-05-24 05:44:22 51°13.597 2°56.109 2.7 56 11.3 101950 81
2005-05-24 05:44:27 51°13.597 2°56.109 2.5 77 11.3 101950 81
2005-05-24 05:44:32 51°13.597 2°56.109 3.6 62 11.3 101950 81
2005-05-24 05:44:37 51°13.597 2°56.109 3.7 58 11.3 101950 81
2005-05-24 05:44:42 51°13.597 2°56.109 3.2 78 11.3 101950 81
2005-05-24 05:44:47 51°13.597 2°56.109 3.6 81 11.3 101950 81
2005-05-24 05:44:52 51°13.597 2°56.109 2.8 83 11.3 101950 81
2005-05-24 05:44:57 51°13.597 2°56.109 2.8 46 11.3 101950 81
2005-05-24 05:45:02 51°13.597 2°56.109 3.1 47 11.3 101950 81
2005-05-24 05:45:07 51°13.597 2°56.109 3.5 39 11.3 101950 81
2005-05-24 05:45:12 51°13.597 2°56.109 3.7 49 11.3 101950 81
2005-05-24 05:45:17 51°13.597 2°56.109 3.5 70 11.3 101960 81
2005-05-24 05:45:22 51°13.597 2°56.109 3 81 11.3 101960 81
2005-05-24 05:45:26 51°13.597 2°56.109 2.6 82 11.3 101950 81
2005-05-24 05:45:32 51°13.597 2°56.109 1.9 98 11.3 101950 81
2005-05-24 05:45:37 51°13.597 2°56.109 1.9 81 11.3 101950 81
2005-05-24 05:45:42 51°13.597 2°56.109 4.2 44 11.3 101950 81
2005-05-24 05:45:47 51°13.597 2°56.109 3.9 44 11.3 101950 81
2005-05-24 05:45:52 51°13.597 2°56.109 3.3 67 11.3 101950 81
2005-05-24 05:45:57 51°13.597 2°56.109 3.6 39 11.3 101950 81
2005-05-24 05:46:02 51°13.597 2°56.109 4.3 39 11.3 101950 81
2005-05-24 05:46:07 51°13.597 2°56.109 4 50 11.3 101950 81
2005-05-24 05:46:12 51°13.597 2°56.109 3.1 44 11.3 101950 81
2005-05-24 05:46:17 51°13.597 2°56.109 2.8 52 11.3 101950 81
2005-05-24 05:46:22 51°13.597 2°56.109 2.5 47 11.3 101950 81
2005-05-24 05:46:27 51°13.597 2°56.109 2.3 56 11.3 101950 81
2005-05-24 05:46:32 51°13.597 2°56.109 2.9 35 11.3 101950 81
2005-05-24 05:46:37 51°13.597 2°56.109 2.6 28 11.3 101950 81
2005-05-24 05:46:42 51°13.597 2°56.108 4.4 44 11.3 101950 81
2005-05-24 05:46:47 51°13.597 2°56.108 4.3 41 11.3 101950 81
2005-05-24 05:46:52 51°13.597 2°56.108 4 36 11.3 101950 81
2005-05-24 05:46:57 51°13.597 2°56.108 2.9 58 11.3 101950 81
2005-05-24 05:47:02 51°13.597 2°56.109 4 45 11.3 101950 81
2005-05-24 05:47:07 51°13.597 2°56.108 3.7 49 11.3 101950 81
2005-05-24 05:47:12 51°13.597 2°56.108 3.2 43 11.3 101950 81
2005-05-24 05:47:17 51°13.597 2°56.108 4 44 11.3 101950 81
2005-05-24 05:47:22 51°13.597 2°56.108 3.1 29 11.3 101950 81
2005-05-24 05:47:26 51°13.597 2°56.108 2.9 42 11.3 101950 81
2005-05-24 05:47:32 51°13.597 2°56.108 3.1 63 11.3 101950 81
2005-05-24 05:47:37 51°13.597 2°56.108 3.3 63 11.3 101950 81
2005-05-24 05:47:42 51°13.597 2°56.108 4.1 104 11.3 101950 81
2005-05-24 05:47:47 51°13.597 2°56.108 3.6 92 11.3 101950 81
2005-05-24 05:47:52 51°13.597 2°56.108 3.2 101 11.3 101950 81
2005-05-24 05:47:57 51°13.597 2°56.108 4.8 33 11.3 101950 81
2005-05-24 05:48:02 51°13.597 2°56.108 4.1 41 11.3 101950 81
2005-05-24 05:48:07 51°13.597 2°56.108 3.9 29 11.3 101950 81
2005-05-24 05:48:12 51°13.597 2°56.108 2 44 11.3 101950 81
2005-05-24 05:48:17 51°13.597 2°56.108 3.3 58 11.3 101950 81
2005-05-24 05:48:22 51°13.597 2°56.108 3.6 40 11.3 101950 81
2005-05-24 05:48:27 51°13.597 2°56.108 3.8 48 11.3 101950 82
2005-05-24 05:48:32 51°13.597 2°56.108 3.2 41 11.3 101950 82
2005-05-24 05:48:37 51°13.597 2°56.108 2.9 51 11.3 101950 82
2005-05-24 05:48:42 51°13.597 2°56.108 4.6 89 11.3 101950 82
2005-05-24 05:48:47 51°13.597 2°56.108 4.5 83 11.3 101950 82
2005-05-24 05:48:52 51°13.597 2°56.108 4.3 89 11.3 101950 82
2005-05-24 05:48:57 51°13.597 2°56.108 3.4 78 11.3 101950 81
2005-05-24 05:49:02 51°13.597 2°56.108 3.9 34 11.3 101950 81
2005-05-24 05:49:06 51°13.597 2°56.108 3.3 32 11.3 101950 81
2005-05-24 05:49:12 51°13.597 2°56.108 3 68 11.3 101950 81
2005-05-24 05:49:17 51°13.597 2°56.108 3.8 68 11.3 101950 81
2005-05-24 05:49:22 51°13.597 2°56.108 3 72 11.3 101950 81
2005-05-24 05:49:27 51°13.597 2°56.108 2 77 11.3 101950 82
2005-05-24 05:49:32 51°13.597 2°56.108 2.8 35 11.3 101950 82
2005-05-24 05:49:37 51°13.597 2°56.108 3 44 11.3 101950 82
2005-05-24 05:49:42 51°13.597 2°56.108 2.3 67 11.3 101950 82
2005-05-24 05:49:47 51°13.597 2°56.109 1.7 57 11.3 101950 82
2005-05-24 05:49:52 51°13.597 2°56.109 3.4 63 11.3 101950 82
2005-05-24 05:49:57 51°13.597 2°56.109 2.5 51 11.3 101950 82
2005-05-24 05:50:02 51°13.597 2°56.109 2.4 68 11.3 101950 82
2005-05-24 05:50:07 51°13.597 2°56.109 3.2 48 11.3 101960 82
2005-05-24 05:50:12 51°13.597 2°56.109 1.8 74 11.3 101960 82
2005-05-24 05:50:17 51°13.597 2°56.109 1.6 85 11.3 101950 82
2005-05-24 05:50:22 51°13.597 2°56.109 2.9 48 11.3 101950 82
2005-05-24 05:50:27 51°13.597 2°56.109 3 48 11.3 101960 81
2005-05-24 05:50:32 51°13.597 2°56.109 3.2 43 11.3 101960 81
2005-05-24 05:50:37 51°13.597 2°56.109 2.7 35 11.3 101960 82
2005-05-24 05:50:42 51°13.597 2°56.109 3.2 53 11.3 101960 82
2005-05-24 05:50:47 51°13.597 2°56.109 2.9 40 11.3 101960 82
2005-05-24 05:50:52 51°13.597 2°56.109 3.3 77 11.3 101960 82
2005-05-24 05:50:57 51°13.597 2°56.109 3.8 80 11.3 101960 82
2005-05-24 05:51:02 51°13.597 2°56.109 4.1 89 11.3 101960 82
2005-05-24 05:51:07 51°13.597 2°56.109 2.9 79 11.3 101950 82
2005-05-24 05:51:12 51°13.597 2°56.109 2.8 59 11.3 101950 82
2005-05-24 05:51:17 51°13.597 2°56.109 2.5 81 11.3 101950 82
2005-05-24 05:51:22 51°13.597 2°56.109 3.6 61 11.3 101950 82
2005-05-24 05:51:27 51°13.597 2°56.109 4 57 11.3 101960 81
2005-05-24 05:51:32 51°13.597 2°56.109 3 43 11.3 101960 81
2005-05-24 05:51:37 51°13.597 2°56.109 2.8 72 11.3 101960 82
2005-05-24 05:51:42 51°13.597 2°56.108 2.2 100 11.3 101960 82
2005-05-24 05:51:47 51°13.597 2°56.108 1.5 109 11.4 101950 82
2005-05-24 05:51:52 51°13.597 2°56.109 4.8 38 11.4 101950 82
2005-05-24 05:51:57 51°13.597 2°56.108 4.8 30 11.3 101960 82
2005-05-24 05:52:02 51°13.597 2°56.108 4.3 46 11.3 101960 82
2005-05-24 05:52:07 51°13.597 2°56.108 5.2 49 11.3 101950 82
2005-05-24 05:52:12 51°13.597 2°56.108 6.2 71 11.3 101950 82
2005-05-24 05:52:17 51°13.597 2°56.108 5.1 69 11.3 101950 82
2005-05-24 05:52:22 51°13.597 2°56.108 3.9 39 11.3 101950 82
2005-05-24 05:52:26 51°13.597 2°56.108 4.7 53 11.3 101950 82
2005-05-24 05:52:32 51°13.597 2°56.109 4 59 11.3 101950 82
2005-05-24 05:52:37 51°13.597 2°56.108 4.3 61 11.4 101950 82
2005-05-24 05:52:42 51°13.597 2°56.108 3.4 47 11.4 101950 82
2005-05-24 05:52:47 51°13.597 2°56.108 3.2 39 11.3 101950 82
2005-05-24 05:52:52 51°13.597 2°56.109 3.3 58 11.3 101950 82
2005-05-24 05:52:57 51°13.597 2°56.109 3.6 57 11.3 101950 82
2005-05-24 05:53:02 51°13.597 2°56.109 2.9 71 11.3 101950 82
2005-05-24 05:53:07 51°13.597 2°56.109 2.6 62 11.4 101950 82
2005-05-24 05:53:12 51°13.597 2°56.109 2.2 67 11.4 101950 82
2005-05-24 05:53:17 51°13.597 2°56.108 2.2 67 11.4 101960 82
2005-05-24 05:53:22 51°13.598 2°56.108 4.2 39 11.4 101960 82
2005-05-24 05:53:27 51°13.598 2°56.108 3.2 23 11.3 101950 82
2005-05-24 05:53:32 51°13.598 2°56.109 5.2 47 11.3 101950 82
2005-05-24 05:53:37 51°13.598 2°56.109 5.1 37 11.4 101950 82
2005-05-24 05:53:42 51°13.598 2°56.109 3.3 43 11.4 101950 82
2005-05-24 05:53:46 51°13.598 2°56.109 4 36 11.4 101950 82
2005-05-24 05:53:52 51°13.598 2°56.108 3.8 50 11.4 101950 82
2005-05-24 05:53:57 51°13.598 2°56.108 3.8 47 11.4 101950 82
2005-05-24 05:54:02 51°13.598 2°56.108 3.1 56 11.4 101950 82
2005-05-24 05:54:06 51°13.598 2°56.108 3.1 32 11.4 101950 82
2005-05-24 05:54:12 51°13.598 2°56.109 2.5 71 11.4 101950 82
2005-05-24 05:54:17 51°13.598 2°56.109 2.4 88 11.4 101950 82
2005-05-24 05:54:22 51°13.598 2°56.109 2.5 70 11.4 101950 82
2005-05-24 05:54:26 51°13.598 2°56.109 3 51 11.4 101950 82
2005-05-24 05:54:32 51°13.598 2°56.108 2.6 47 11.4 101950 82
2005-05-24 05:54:37 51°13.598 2°56.108 2 29 11.4 101950 82
2005-05-24 05:54:42 51°13.598 2°56.108 2 40 11.4 101950 82
2005-05-24 05:54:46 51°13.598 2°56.109 2.8 22 11.4 101950 82
2005-05-24 05:54:52 51°13.598 2°56.109 2.3 40 11.4 101950 82
2005-05-24 05:54:57 51°13.598 2°56.109 2.4 58 11.4 101950 82
2005-05-24 05:55:01 51°13.598 2°56.109 3.8 91 11.4 101950 82
2005-05-24 05:55:06 51°13.598 2°56.109 3.7 84 11.4 101950 82
2005-05-24 05:55:12 51°13.598 2°56.109 1.9 79 11.4 101950 82
2005-05-24 05:55:17 51°13.598 2°56.109 2.2 94 11.4 101960 82
2005-05-24 05:55:21 51°13.598 2°56.108 3.1 43 11.4 101960 82
2005-05-24 05:55:26 51°13.598 2°56.108 3.1 36 11.4 101960 82
2005-05-24 05:55:32 51°13.598 2°56.108 3.9 37 11.4 101960 82
2005-05-24 05:55:37 51°13.598 2°56.108 3.6 41 11.4 101960 82
2005-05-24 05:55:42 51°13.598 2°56.108 3.9 45 11.4 101960 82
2005-05-24 05:55:47 51°13.598 2°56.108 2.8 65 11.4 101950 82
2005-05-24 05:55:52 51°13.598 2°56.108 2.4 66 11.4 101950 82
2005-05-24 05:55:57 51°13.598 2°56.108 2.6 35 11.4 101960 82
2005-05-24 05:56:02 51°13.598 2°56.108 2.2 54 11.4 101960 82
2005-05-24 05:56:07 51°13.598 2°56.108 1.8 89 11.4 101960 82
2005-05-24 05:56:12 51°13.598 2°56.108 1.1 53 11.4 101960 82
2005-05-24 05:56:17 51°13.598 2°56.108 1.3 80 11.4 101960 82
2005-05-24 05:56:22 51°13.598 2°56.108 2.3 67 11.4 101960 82
2005-05-24 05:56:27 51°13.598 2°56.108 3.3 41 11.4 101960 82
2005-05-24 05:56:32 51°13.598 2°56.108 3 30 11.4 101960 82
2005-05-24 05:56:37 51°13.598 2°56.108 1.6 60 11.4 101960 82
2005-05-24 05:56:42 51°13.598 2°56.108 1.6 29 11.4 101960 82
2005-05-24 05:56:46 51°13.598 2°56.108 2 32 11.4 101950 82
2005-05-24 05:56:52 51°13.598 2°56.108 3.2 59 11.4 101950 82
2005-05-24 05:56:57 51°13.598 2°56.108 3.6 44 11.4 101960 82
2005-05-24 05:57:02 51°13.598 2°56.109 2.4 65 11.4 101960 82
2005-05-24 05:57:06 51°13.598 2°56.109 2.2 90 11.4 101960 82
2005-05-24 05:57:12 51°13.598 2°56.109 2.7 51 11.4 101960 82
2005-05-24 05:57:17 51°13.598 2°56.109 2.5 70 11.5 101960 82
2005-05-24 05:57:22 51°13.598 2°56.109 2.3 121 11.5 101960 82
2005-05-24 05:57:26 51°13.598 2°56.109 2.2 117 11.5 101950 82
2005-05-24 05:57:32 51°13.598 2°56.109 2.2 102 11.5 101950 82
2005-05-24 05:57:37 51°13.598 2°56.109 2.1 119 11.5 101960 82
2005-05-24 05:57:42 51°13.598 2°56.109 3 48 11.5 101960 82
2005-05-24 05:57:46 51°13.598 2°56.109 3.1 62 11.5 101960 82
2005-05-24 05:57:52 51°13.598 2°56.109 2.6 85 11.5 101960 82
2005-05-24 05:57:57 51°13.598 2°56.109 3.9 95 11.5 101960 82
2005-05-24 05:58:02 51°13.598 2°56.109 3.1 104 11.5 101960 82
2005-05-24 05:58:06 51°13.598 2°56.109 3.7 105 11.5 101960 82
2005-05-24 05:58:12 51°13.598 2°56.109 2.5 80 11.5 101960 82
2005-05-24 05:58:17 51°13.598 2°56.109 1.9 88 11.5 101960 82
2005-05-24 05:58:22 51°13.598 2°56.109 5.2 75 11.5 101960 82
2005-05-24 05:58:26 51°13.598 2°56.109 5.2 92 11.5 101960 82
2005-05-24 05:58:32 51°13.598 2°56.109 2.3 87 11.5 101960 82
2005-05-24 05:58:37 51°13.598 2°56.109 1.7 84 11.5 101960 82
2005-05-24 05:58:42 51°13.598 2°56.109 4.2 116 11.5 101960 82
2005-05-24 05:58:46 51°13.598 2°56.109 4.4 108 11.5 101960 82
2005-05-24 05:58:52 51°13.598 2°56.109 5 97 11.5 101960 82
2005-05-24 05:58:57 51°13.598 2°56.109 4.3 101 11.5 101960 82
2005-05-24 05:59:02 51°13.598 2°56.109 2.6 102 11.5 101960 82
2005-05-24 05:59:06 51°13.598 2°56.109 4.3 106 11.5 101960 82
2005-05-24 05:59:12 51°13.598 2°56.109 3.6 127 11.5 101960 82
2005-05-24 05:59:17 51°13.598 2°56.109 4.1 106 11.5 101950 82
2005-05-24 05:59:22 51°13.598 2°56.109 1.8 75 11.5 101950 82
2005-05-24 05:59:27 51°13.598 2°56.109 1.3 88 11.5 101960 82
2005-05-24 05:59:32 51°13.598 2°56.109 4.1 119 11.5 101960 82
2005-05-24 05:59:37 51°13.598 2°56.109 3.1 105 11.5 101960 82
2005-05-24 05:59:42 51°13.598 2°56.109 4.5 117 11.5 101960 82
2005-05-24 05:59:47 51°13.598 2°56.109 3.2 120 11.5 101960 82
2005-05-24 05:59:52 51°13.598 2°56.109 1.8 39 11.5 101960 82
2005-05-24 05:59:57 51°13.599 2°56.108 2 43 11.5 101960 82
2005-05-24 06:00:02 51°13.599 2°56.109 2.7 68 11.5 101960 82
2005-05-24 06:00:07 51°13.599 2°56.109 3.1 102 11.5 101960 82
2005-05-24 06:00:12 51°13.599 2°56.109 3 54 11.5 101960 82
2005-05-24 06:00:17 51°13.599 2°56.109 2.8 69 11.5 101960 82
2005-05-24 06:00:22 51°13.599 2°56.109 2.7 74 11.5 101960 82
2005-05-24 06:00:27 51°13.599 2°56.109 2.5 45 11.5 101960 82
2005-05-24 06:00:32 51°13.599 2°56.109 3.1 48 11.5 101960 82
2005-05-24 06:00:37 51°13.599 2°56.109 2 63 11.5 101960 82
2005-05-24 06:00:42 51°13.599 2°56.109 2.4 68 11.5 101960 82
2005-05-24 06:00:47 51°13.599 2°56.109 2.1 76 11.5 101960 82
2005-05-24 06:00:52 51°13.599 2°56.109 3 79 11.5 101960 82
2005-05-24 06:00:57 51°13.599 2°56.109 3.6 100 11.5 101960 82
2005-05-24 06:01:02 51°13.599 2°56.108 2.7 97 11.5 101960 82
2005-05-24 06:01:07 51°13.599 2°56.108 2.4 109 11.5 101960 82
2005-05-24 06:01:12 51°13.599 2°56.108 2.8 83 11.5 101960 82
2005-05-24 06:01:17 51°13.599 2°56.108 3.4 71 11.5 101960 82
2005-05-24 06:01:22 51°13.599 2°56.108 4.3 86 11.5 101960 82
2005-05-24 06:01:27 51°13.599 2°56.108 2.6 98 11.5 101960 82
2005-05-24 06:01:32 51°13.599 2°56.108 3 52 11.5 101960 82
2005-05-24 06:01:37 51°13.599 2°56.108 3.1 55 11.5 101960 82
2005-05-24 06:01:42 51°13.599 2°56.108 3.3 84 11.5 101960 82
2005-05-24 06:01:47 51°13.599 2°56.108 4.3 87 11.5 101960 82
2005-05-24 06:01:52 51°13.599 2°56.108 3.4 98 11.5 101960 82
2005-05-24 06:01:57 51°13.599 2°56.108 3 115 11.5 101960 82
2005-05-24 06:02:02 51°13.599 2°56.108 2.4 69 11.5 101960 82
2005-05-24 06:02:07 51°13.599 2°56.108 2.8 58 11.5 101960 82
2005-05-24 06:02:12 51°13.599 2°56.108 2.3 95 11.5 101960 82
2005-05-24 06:02:17 51°13.599 2°56.108 2.2 100 11.5 101960 81
2005-05-24 06:02:22 51°13.599 2°56.108 2.9 63 11.5 101960 81
2005-05-24 06:02:27 51°13.599 2°56.108 3.6 57 11.6 101960 82
2005-05-24 06:02:32 51°13.599 2°56.108 2.8 75 11.6 101960 82
2005-05-24 06:02:37 51°13.599 2°56.108 3 53 11.5 101960 82
2005-05-24 06:02:42 51°13.599 2°56.108 3 79 11.5 101960 82
2005-05-24 06:02:47 51°13.599 2°56.108 2.9 81 11.5 101960 82
2005-05-24 06:02:52 51°13.599 2°56.108 2.6 44 11.5 101960 82
2005-05-24 06:02:57 51°13.599 2°56.108 2.8 61 11.6 101960 82
2005-05-24 06:03:02 51°13.599 2°56.108 3.5 96 11.6 101960 82
2005-05-24 06:03:07 51°13.599 2°56.108 2.9 95 11.6 101960 82
2005-05-24 06:03:12 51°13.599 2°56.108 3.3 64 11.6 101960 82
2005-05-24 06:03:17 51°13.599 2°56.108 3 72 11.6 101960 82
2005-05-24 06:03:22 51°13.599 2°56.108 3.2 59 11.6 101960 82
2005-05-24 06:03:27 51°13.599 2°56.108 4.2 48 11.6 101960 82
2005-05-24 06:03:32 51°13.599 2°56.108 5.9 59 11.6 101960 82
2005-05-24 06:03:37 51°13.599 2°56.108 5.8 35 11.6 101960 82
2005-05-24 06:03:42 51°13.599 2°56.108 5.4 61 11.6 101960 82
2005-05-24 06:03:47 51°13.599 2°56.108 6.2 72 11.6 101960 82
2005-05-24 06:03:52 51°13.599 2°56.108 3.2 76 11.6 101960 82
2005-05-24 06:03:57 51°13.598 2°56.108 3.4 74 11.6 101960 81
2005-05-24 06:04:02 51°13.598 2°56.108 3.5 36 11.6 101960 81
2005-05-24 06:04:07 51°13.598 2°56.108 2 49 11.6 101960 81
2005-05-24 06:04:11 51°13.598 2°56.108 5.8 65 11.6 101960 81
2005-05-24 06:04:17 51°13.598 2°56.108 4.3 69 11.6 101960 81
2005-05-24 06:04:22 51°13.598 2°56.108 4.5 112 11.6 101960 81
2005-05-24 06:04:27 51°13.598 2°56.108 3.7 40 11.6 101960 81
2005-05-24 06:04:32 51°13.598 2°56.108 3.6 82 11.6 101960 81
2005-05-24 06:04:37 51°13.598 2°56.108 5 80 11.6 101960 81
2005-05-24 06:04:42 51°13.598 2°56.108 3.7 107 11.6 101960 81
2005-05-24 06:04:47 51°13.598 2°56.108 3.4 100 11.6 101960 81
2005-05-24 06:04:51 51°13.598 2°56.108 4.5 76 11.6 101960 81
2005-05-24 06:04:57 51°13.598 2°56.108 3.5 52 11.6 101960 81
2005-05-24 06:05:02 51°13.598 2°56.108 4.4 81 11.6 101960 81
2005-05-24 06:05:07 51°13.598 2°56.108 4.1 83 11.6 101960 81
2005-05-24 06:05:11 51°13.598 2°56.108 4.3 84 11.6 101960 81
2005-05-24 06:05:17 51°13.598 2°56.108 3.9 97 11.6 101960 81
2005-05-24 06:05:22 51°13.598 2°56.108 4.3 53 11.6 101960 81
2005-05-24 06:05:27 51°13.598 2°56.108 3.3 67 11.6 101960 81
2005-05-24 06:05:32 51°13.598 2°56.108 4 90 11.6 101960 81
2005-05-24 06:05:37 51°13.598 2°56.108 3.7 85 11.6 101960 81
2005-05-24 06:05:42 51°13.598 2°56.108 5.3 69 11.6 101960 81
2005-05-24 06:05:47 51°13.598 2°56.108 4.4 64 11.6 101960 81
2005-05-24 06:05:52 51°13.598 2°56.108 3.9 91 11.6 101960 81
2005-05-24 06:05:57 51°13.598 2°56.108 2.8 109 11.6 101960 81
2005-05-24 06:06:02 51°13.598 2°56.108 3.1 108 11.6 101960 81
2005-05-24 06:06:07 51°13.598 2°56.108 3.5 116 11.6 101960 81
2005-05-24 06:06:12 51°13.598 2°56.108 3.6 111 11.6 101960 81
2005-05-24 06:06:17 51°13.598 2°56.108 3 104 11.6 101960 81
2005-05-24 06:06:22 51°13.598 2°56.108 2.9 89 11.6 101960 81
2005-05-24 06:06:27 51°13.598 2°56.108 3.4 87 11.6 101960 81
2005-05-24 06:06:32 51°13.598 2°56.108 3 68 11.6 101960 81
2005-05-24 06:06:37 51°13.598 2°56.108 2.5 71 11.6 101970 81
2005-05-24 06:06:42 51°13.598 2°56.108 3.7 64 11.6 101970 81
2005-05-24 06:06:47 51°13.598 2°56.108 3.5 76 11.6 101970 81
2005-05-24 06:06:52 51°13.598 2°56.108 3.7 44 11.6 101970 81
2005-05-24 06:06:57 51°13.598 2°56.108 2.7 56 11.6 101970 81
2005-05-24 06:07:02 51°13.598 2°56.108 3.5 77 11.6 101970 81
2005-05-24 06:07:07 51°13.598 2°56.108 4.4 75 11.6 101960 81
2005-05-24 06:07:12 51°13.598 2°56.108 3.7 103 11.6 101960 81
2005-05-24 06:07:17 51°13.598 2°56.108 3.8 106 11.6 101970 81
2005-05-24 06:07:22 51°13.598 2°56.108 2.4 88 11.6 101970 81
2005-05-24 06:07:27 51°13.598 2°56.108 2.4 103 11.6 101960 81
2005-05-24 06:07:32 51°13.598 2°56.108 2.5 134 11.6 101960 81
2005-05-24 06:07:37 51°13.598 2°56.108 1.9 100 11.6 101970 81
2005-05-24 06:07:42 51°13.598 2°56.108 2.2 69 11.6 101970 81
2005-05-24 06:07:47 51°13.598 2°56.108 1.7 68 11.6 101960 81
2005-05-24 06:07:51 51°13.598 2°56.108 4.1 97 11.6 101960 81
2005-05-24 06:07:58 51°13.598 2°56.108 3.8 87 11.6 101960 81
2005-05-24 06:08:02 51°13.598 2°56.108 4.2 102 11.6 101960 81
2005-05-24 06:08:07 51°13.598 2°56.108 3.4 65 11.6 101960 81
2005-05-24 06:08:11 51°13.598 2°56.108 5.1 93 11.6 101960 81
2005-05-24 06:08:17 51°13.598 2°56.108 3.9 60 11.6 101960 81
2005-05-24 06:08:22 51°13.598 2°56.108 3.2 99 11.6 101960 81
2005-05-24 06:08:27 51°13.597 2°56.108 4.1 107 11.6 101960 81
2005-05-24 06:08:32 51°13.597 2°56.108 4.9 102 11.6 101960 81
2005-05-24 06:08:37 51°13.597 2°56.108 4.6 94 11.6 101970 81
2005-05-24 06:08:42 51°13.597 2°56.108 6 99 11.6 101970 81
2005-05-24 06:08:47 51°13.597 2°56.108 5.8 99 11.6 101960 81
2005-05-24 06:08:52 51°13.597 2°56.108 4.1 82 11.6 101960 81
2005-05-24 06:08:57 51°13.597 2°56.108 4.3 104 11.6 101970 81
2005-05-24 06:09:02 51°13.597 2°56.108 5 87 11.6 101970 81
2005-05-24 06:09:07 51°13.597 2°56.107 4.8 91 11.6 101960 81
2005-05-24 06:09:12 51°13.597 2°56.107 3.7 142 11.6 101960 81
2005-05-24 06:09:17 51°13.597 2°56.107 5.2 164 11.6 101970 81
2005-05-24 06:09:22 51°13.597 2°56.108 2.4 76 11.6 101970 81
2005-05-24 06:09:27 51°13.597 2°56.108 2.6 96 11.6 101960 81
2005-05-24 06:09:32 51°13.597 2°56.108 3.2 54 11.6 101960 81
2005-05-24 06:09:37 51°13.597 2°56.108 2.1 66 11.6 101960 81
2005-05-24 06:09:42 51°13.597 2°56.108 3.1 56 11.6 101960 81
2005-05-24 06:09:47 51°13.597 2°56.107 3.1 45 11.6 101960 81
2005-05-24 06:09:52 51°13.597 2°56.107 2.9 90 11.6 101960 81
2005-05-24 06:09:57 51°13.597 2°56.108 3.1 98 11.6 101960 81
2005-05-24 06:10:02 51°13.597 2°56.108 2 95 11.6 101960 81
2005-05-24 06:10:07 51°13.597 2°56.108 2.9 83 11.6 101960 81
2005-05-24 06:10:12 51°13.597 2°56.107 2.5 75 11.6 101960 81
2005-05-24 06:10:17 51°13.597 2°56.107 2.7 35 11.6 101970 81
2005-05-24 06:10:22 51°13.597 2°56.107 3.1 73 11.6 101970 81
2005-05-24 06:10:27 51°13.596 2°56.107 4 75 11.6 101970 81
2005-05-24 06:10:31 51°13.596 2°56.107 4.4 60 11.6 101970 81
2005-05-24 06:10:37 51°13.596 2°56.107 4.8 74 11.6 101970 81
2005-05-24 06:10:42 51°13.596 2°56.107 5.1 68 11.6 101970 81
2005-05-24 06:10:47 51°13.596 2°56.107 4.8 58 11.7 101970 81
2005-05-24 06:10:52 51°13.596 2°56.107 4.9 73 11.7 101970 81
2005-05-24 06:10:57 51°13.596 2°56.107 5.8 74 11.7 101970 81
2005-05-24 06:11:02 51°13.596 2°56.107 3.8 107 11.7 101970 81
2005-05-24 06:11:07 51°13.596 2°56.107 5 99 11.7 101960 81
2005-05-24 06:11:12 51°13.596 2°56.107 6.3 122 11.7 101960 81
2005-05-24 06:11:17 51°13.596 2°56.107 4.8 118 11.7 101960 81
2005-05-24 06:11:22 51°13.596 2°56.106 4.6 104 11.7 101960 81
2005-05-24 06:11:27 51°13.596 2°56.107 4.2 87 11.7 101970 81
2005-05-24 06:11:32 51°13.596 2°56.107 5.2 100 11.7 101970 81
2005-05-24 06:11:37 51°13.596 2°56.107 4.3 76 11.7 101970 81
2005-05-24 06:11:45 51°13.596 2°56.107 4.6 84 11.7 101970 81
2005-05-24 06:11:49 51°13.596 2°56.107 4.6 84 11.7 101970 81
2005-05-24 06:11:53 51°13.596 2°56.107 4.6 84 11.7 101970 81
2005-05-24 06:11:57 51°13.596 2°56.107 4.6 84 11.7 101970 81
2005-05-24 06:12:02 51°13.596 2°56.107 4.6 84 11.7 101970 81
2005-05-24 06:12:07 51°13.596 2°56.107 4.6 84 -999 -999 -999
2005-05-24 06:12:12 51°13.596 2°56.107 -999 -999 -999 -999 -999
2005-05-24 06:12:17 51°13.596 2°56.107 -999 -999 -999 -999 -999
2005-05-24 06:12:22 51°13.596 2°56.107 -999 106 -999 -999 -999
2005-05-24 06:12:27 51°13.596 2°56.107 4.7 125 -999 -999 -999
2005-05-24 06:12:31 51°13.597 2°56.107 3.2 116 -999 -999 -999
2005-05-24 06:12:35 51°13.597 2°56.107 4.2 120 -999 -999 -999
2005-05-24 06:12:41 51°13.597 2°56.107 3 130 -999 -999 -999
2005-05-24 06:12:46 51°13.597 2°56.107 3.6 135 11.6 -999 80
2005-05-24 06:12:51 51°13.597 2°56.107 3.2 124 11.6 -999 80
2005-05-24 06:12:56 51°13.597 2°56.107 3.1 124 11.7 -999 81
2005-05-24 06:13:01 51°13.597 2°56.107 2.3 90 11.7 -999 81
2005-05-24 06:13:06 51°13.597 2°56.107 2.4 64 11.7 101970 81
2005-05-24 06:13:11 51°13.597 2°56.107 4 98 11.7 101970 81
2005-05-24 06:13:16 51°13.597 2°56.107 3.5 83 11.7 101970 81
2005-05-24 06:13:22 51°13.597 2°56.107 2.9 63 11.7 101970 81
2005-05-24 06:13:26 51°13.597 2°56.107 2.6 57 11.6 101970 81
2005-05-24 06:13:31 51°13.597 2°56.107 2.7 41 11.6 101970 81
2005-05-24 06:13:36 51°13.597 2°56.107 1.6 65 11.7 101970 81
2005-05-24 06:13:42 51°13.597 2°56.107 2 100 11.7 101970 81
2005-05-24 06:13:46 51°13.597 2°56.107 2.2 77 11.7 101970 81
2005-05-24 06:13:51 51°13.597 2°56.107 2.9 76 11.7 101970 81
2005-05-24 06:13:56 51°13.597 2°56.107 3 72 11.7 101970 81
2005-05-24 06:14:02 51°13.597 2°56.107 2.1 93 11.7 101970 81
2005-05-24 06:14:06 51°13.597 2°56.107 2.2 109 11.7 101970 81
2005-05-24 06:14:11 51°13.597 2°56.108 2 110 11.7 101970 81
2005-05-24 06:14:16 51°13.597 2°56.108 2 118 11.7 101970 81
2005-05-24 06:14:22 51°13.597 2°56.108 2.2 113 11.7 101970 81
2005-05-24 06:14:26 51°13.598 2°56.108 2.1 115 11.7 101970 81
2005-05-24 06:14:31 51°13.598 2°56.108 3.1 126 11.7 101970 81
2005-05-24 06:14:36 51°13.598 2°56.108 2.1 119 11.7 101970 81
2005-05-24 06:14:41 51°13.598 2°56.108 2.3 126 11.7 101970 81
2005-05-24 06:14:46 51°13.598 2°56.108 1.7 223 11.7 101970 81
2005-05-24 06:14:51 51°13.598 2°56.108 2.4 106 11.7 101970 81
2005-05-24 06:14:56 51°13.598 2°56.108 2.4 64 11.7 101970 81
2005-05-24 06:15:01 51°13.598 2°56.108 2 77 11.7 101970 81
2005-05-24 06:15:06 51°13.598 2°56.108 2.3 108 11.7 101970 81
2005-05-24 06:15:11 51°13.598 2°56.108 2.5 64 11.7 101970 81
2005-05-24 06:15:16 51°13.598 2°56.108 1.9 79 11.7 101970 81
2005-05-24 06:15:21 51°13.598 2°56.108 2.2 88 11.7 101970 81
2005-05-24 06:15:26 51°13.598 2°56.108 2.3 141 11.7 101970 81
2005-05-24 06:15:31 51°13.598 2°56.108 2.9 131 11.7 101970 81
2005-05-24 06:15:36 51°13.598 2°56.108 3 125 11.7 101970 81
2005-05-24 06:15:42 51°13.598 2°56.108 2.7 80 11.7 101970 81
2005-05-24 06:15:46 51°13.598 2°56.108 2.9 98 11.7 101970 81
2005-05-24 06:15:51 51°13.598 2°56.108 4.1 124 11.7 101970 81
2005-05-24 06:15:56 51°13.598 2°56.109 4.6 110 11.7 101980 81
2005-05-24 06:16:02 51°13.598 2°56.109 5.2 128 11.7 101980 81
2005-05-24 06:16:06 51°13.598 2°56.109 4.8 119 11.7 101980 81
2005-05-24 06:16:11 51°13.598 2°56.109 6.5 102 11.7 101980 81
2005-05-24 06:16:15 51°13.598 2°56.109 6.1 103 11.7 101980 81
2005-05-24 06:16:22 51°13.598 2°56.109 6.7 118 11.7 101980 81
2005-05-24 06:16:26 51°13.598 2°56.109 5.9 116 11.7 101980 81
2005-05-24 06:16:31 51°13.598 2°56.109 4.6 124 11.7 101980 81
2005-05-24 06:16:36 51°13.598 2°56.109 4.2 120 11.7 101980 81
2005-05-24 06:16:42 51°13.598 2°56.109 3.9 121 11.7 101980 81
2005-05-24 06:16:46 51°13.598 2°56.109 4.8 127 11.7 101970 81
2005-05-24 06:16:51 51°13.598 2°56.109 4.1 123 11.7 101970 81
2005-05-24 06:16:56 51°13.598 2°56.109 3.7 125 11.7 101970 81
2005-05-24 06:17:01 51°13.598 2°56.109 3.9 85 11.7 101970 81
2005-05-24 06:17:07 51°13.598 2°56.109 3.3 85 11.7 101970 81
2005-05-24 06:17:11 51°13.598 2°56.109 2.9 80 11.7 101970 81
2005-05-24 06:17:16 51°13.598 2°56.109 2.9 85 11.7 101980 81
2005-05-24 06:17:22 51°13.598 2°56.109 2.1 81 11.7 101980 81
2005-05-24 06:17:26 51°13.598 2°56.109 2.6 68 11.7 101970 81
2005-05-24 06:17:31 51°13.598 2°56.109 4.4 90 11.7 101970 81
2005-05-24 06:17:36 51°13.598 2°56.109 3.7 85 11.7 101970 81
2005-05-24 06:17:42 51°13.598 2°56.109 4.5 88 11.7 101970 81
2005-05-24 06:17:46 51°13.598 2°56.109 4.4 97 11.7 101970 81
2005-05-24 06:17:51 51°13.598 2°56.109 3.1 84 11.7 101970 81
2005-05-24 06:17:57 51°13.598 2°56.109 3 95 11.7 101980 81
2005-05-24 06:18:01 51°13.598 2°56.109 3.5 123 11.7 101980 81
2005-05-24 06:18:06 51°13.598 2°56.109 2.5 112 11.7 101970 81
2005-05-24 06:18:11 51°13.598 2°56.109 3 109 11.7 101970 81
2005-05-24 06:18:16 51°13.598 2°56.109 3.1 112 11.7 101980 81
2005-05-24 06:18:21 51°13.598 2°56.109 2.1 108 11.7 101980 81
2005-05-24 06:18:26 51°13.598 2°56.109 1.9 102 11.7 101980 81
2005-05-24 06:18:31 51°13.598 2°56.108 2.7 98 11.7 101980 81
2005-05-24 06:18:36 51°13.598 2°56.108 2.6 118 11.7 101970 81
2005-05-24 06:18:42 51°13.598 2°56.108 2.2 61 11.7 101970 81
2005-05-24 06:18:46 51°13.598 2°56.109 1.6 87 11.7 101970 81
2005-05-24 06:18:51 51°13.598 2°56.109 2.6 25 11.7 101970 81
2005-05-24 06:18:56 51°13.598 2°56.109 1.6 58 11.7 101980 81
2005-05-24 06:19:02 51°13.598 2°56.109 1.5 55 11.7 101980 81
2005-05-24 06:19:06 51°13.598 2°56.109 1.1 112 11.8 101980 81
2005-05-24 06:19:11 51°13.598 2°56.109 2.8 108 11.8 101980 81
2005-05-24 06:19:16 51°13.599 2°56.109 2.7 119 11.8 101980 81
2005-05-24 06:19:21 51°13.599 2°56.109 3.8 103 11.8 101980 81
2005-05-24 06:19:26 51°13.598 2°56.109 3.8 111 11.8 101980 81
2005-05-24 06:19:31 51°13.599 2°56.109 3.3 99 11.8 101980 81
2005-05-24 06:19:36 51°13.598 2°56.109 3 100 11.8 101980 81
2005-05-24 06:19:41 51°13.598 2°56.109 4.5 101 11.8 101980 81
2005-05-24 06:19:46 51°13.598 2°56.109 4.6 86 11.8 101980 81
2005-05-24 06:19:51 51°13.598 2°56.109 4.6 56 11.8 101980 81
2005-05-24 06:19:56 51°13.598 2°56.109 3.6 64 11.8 101980 81
2005-05-24 06:20:01 51°13.598 2°56.109 4.7 103 11.8 101980 81
2005-05-24 06:20:06 51°13.598 2°56.109 3.6 80 11.8 101980 81
2005-05-24 06:20:11 51°13.598 2°56.109 4.5 121 11.8 101980 81
2005-05-24 06:20:16 51°13.598 2°56.109 3.4 75 11.8 101980 81
2005-05-24 06:20:21 51°13.599 2°56.109 4 75 11.8 101980 81
2005-05-24 06:20:26 51°13.599 2°56.109 3.9 74 11.8 101980 81
2005-05-24 06:20:31 51°13.599 2°56.109 4.6 83 11.8 101980 81
2005-05-24 06:20:35 51°13.599 2°56.109 4.5 84 11.8 101980 81
2005-05-24 06:20:41 51°13.599 2°56.109 3.5 114 11.8 101980 81
2005-05-24 06:20:46 51°13.599 2°56.109 3.9 104 11.8 101980 81
2005-05-24 06:20:51 51°13.599 2°56.109 3.7 101 11.8 101980 81
2005-05-24 06:20:55 51°13.599 2°56.109 2.7 102 11.8 101970 81
2005-05-24 06:21:02 51°13.599 2°56.109 3.6 87 11.8 101970 81
2005-05-24 06:21:06 51°13.599 2°56.109 3.2 68 11.8 101970 81
2005-05-24 06:21:11 51°13.6 2°56.109 4.8 92 11.8 101970 81
2005-05-24 06:21:15 51°13.6 2°56.109 5.8 116 11.8 101970 81
2005-05-24 06:21:21 51°13.6 2°56.109 3.5 90 11.8 101970 81
2005-05-24 06:21:26 51°13.6 2°56.109 6.7 101 11.8 101970 81
2005-05-24 06:21:30 51°13.6 2°56.109 6 94 11.8 101970 81
2005-05-24 06:21:35 51°13.6 2°56.109 5.4 90 11.8 101980 81
2005-05-24 06:21:41 51°13.6 2°56.109 5.8 115 11.8 101980 81
2005-05-24 06:21:46 51°13.6 2°56.109 5.1 113 11.8 101980 81
2005-05-24 06:21:50 51°13.6 2°56.109 4.3 103 11.8 101980 81
2005-05-24 06:21:55 51°13.6 2°56.109 4 112 11.8 101970 80
2005-05-24 06:22:00 51°13.6 2°56.109 4.7 102 11.8 101970 80
2005-05-24 06:22:06 51°13.6 2°56.109 4.5 107 11.8 101970 80
2005-05-24 06:22:11 51°13.6 2°56.109 4.6 114 11.8 101970 80
2005-05-24 06:22:16 51°13.601 2°56.109 4.5 119 11.8 101980 80
2005-05-24 06:22:21 51°13.601 2°56.109 3.6 103 11.8 101980 80
2005-05-24 06:22:26 51°13.601 2°56.109 3.8 103 11.8 101980 80
2005-05-24 06:22:30 51°13.601 2°56.109 3.8 75 11.8 101980 80
2005-05-24 06:22:35 51°13.601 2°56.109 3.9 91 11.8 101970 80
2005-05-24 06:22:41 51°13.6 2°56.109 4.1 133 11.8 101970 80
2005-05-24 06:22:46 51°13.6 2°56.109 4.6 120 11.8 101970 80
2005-05-24 06:22:50 51°13.6 2°56.109 3.7 98 11.8 101970 80
2005-05-24 06:22:56 51°13.6 2°56.109 2.9 42 11.8 101980 80
2005-05-24 06:23:01 51°13.6 2°56.109 5.7 112 11.8 101980 80
2005-05-24 06:23:06 51°13.6 2°56.109 5.3 98 11.8 101980 80
2005-05-24 06:23:10 51°13.6 2°56.109 3.8 88 11.8 101980 80
2005-05-24 06:23:16 51°13.6 2°56.109 3.4 89 11.8 101980 80
2005-05-24 06:23:21 51°13.6 2°56.109 4.1 105 11.8 101980 80
2005-05-24 06:23:26 51°13.6 2°56.109 3.9 94 11.8 101980 80
2005-05-24 06:23:30 51°13.6 2°56.109 3.8 92 11.8 101980 80
2005-05-24 06:23:35 51°13.6 2°56.109 4.2 100 11.8 101980 81
2005-05-24 06:23:41 51°13.599 2°56.109 4.8 119 11.8 101980 81
2005-05-24 06:23:46 51°13.599 2°56.109 4 128 11.8 101980 81
2005-05-24 06:23:51 51°13.599 2°56.109 4.3 94 11.8 101980 81
2005-05-24 06:23:56 51°13.599 2°56.109 4.6 80 11.8 101980 81
2005-05-24 06:24:00 51°13.599 2°56.109 3.2 114 11.8 101980 81
2005-05-24 06:24:06 51°13.599 2°56.109 2.5 105 11.8 101980 81
2005-05-24 06:24:11 51°13.599 2°56.109 3 118 11.8 101980 81
2005-05-24 06:24:15 51°13.599 2°56.109 2.8 114 11.8 101970 81
2005-05-24 06:24:21 51°13.599 2°56.109 3.4 113 11.8 101970 81
2005-05-24 06:24:26 51°13.599 2°56.109 2.6 107 11.8 101980 81
2005-05-24 06:24:30 51°13.599 2°56.109 2.7 116 11.8 101980 81
2005-05-24 06:24:35 51°13.599 2°56.109 4.3 128 11.8 101980 81
2005-05-24 06:24:41 51°13.599 2°56.109 5.1 43 11.8 101980 81
2005-05-24 06:24:46 51°13.599 2°56.109 6.4 131 11.8 101980 81
2005-05-24 06:24:50 51°13.599 2°56.109 4.2 87 11.8 101980 81
2005-05-24 06:24:56 51°13.599 2°56.109 4.1 123 11.8 101980 80
2005-05-24 06:25:01 51°13.599 2°56.109 3.1 83 11.8 101980 80
2005-05-24 06:25:06 51°13.599 2°56.109 3.3 58 11.8 101970 80
2005-05-24 06:25:11 51°13.599 2°56.109 5 89 11.8 101970 80
2005-05-24 06:25:15 51°13.599 2°56.109 3.5 91 11.8 101980 80
2005-05-24 06:25:21 51°13.599 2°56.109 4.8 118 11.8 101980 80
2005-05-24 06:25:26 51°13.599 2°56.109 3.9 114 11.8 101980 80
2005-05-24 06:25:31 51°13.599 2°56.109 3.3 108 11.8 101980 80
2005-05-24 06:25:35 51°13.599 2°56.109 3.6 131 11.9 101980 81
2005-05-24 06:25:41 51°13.599 2°56.109 4.4 105 11.9 101980 81
2005-05-24 06:25:46 51°13.599 2°56.109 4.1 120 11.9 101980 81
2005-05-24 06:25:51 51°13.599 2°56.109 4 119 11.9 101980 81
2005-05-24 06:25:55 51°13.599 2°56.109 4.2 113 11.9 101980 81
2005-05-24 06:26:01 51°13.599 2°56.109 2.5 109 11.9 101980 81
2005-05-24 06:26:06 51°13.599 2°56.109 2.8 93 11.9 101980 81
2005-05-24 06:26:10 51°13.599 2°56.109 5.1 84 11.9 101980 81
2005-05-24 06:26:15 51°13.599 2°56.11 6.3 61 11.9 101980 80
2005-05-24 06:26:21 51°13.599 2°56.109 4.4 96 11.9 101980 80
2005-05-24 06:26:26 51°13.599 2°56.11 4.1 102 11.9 101980 80
2005-05-24 06:26:30 51°13.599 2°56.109 3.8 125 11.9 101980 80
2005-05-24 06:26:36 51°13.598 2°56.109 3.8 97 11.9 101980 80
2005-05-24 06:26:41 51°13.598 2°56.109 2.7 100 11.9 101980 80
2005-05-24 06:26:46 51°13.598 2°56.109 2.9 122 11.9 101980 80
2005-05-24 06:26:51 51°13.598 2°56.109 3 77 11.9 101980 80
2005-05-24 06:26:55 51°13.598 2°56.109 3.6 92 11.9 101980 80
2005-05-24 06:27:00 51°13.598 2°56.109 2.6 101 11.9 101980 80
2005-05-24 06:27:06 51°13.598 2°56.109 2.9 109 11.9 101980 80
2005-05-24 06:27:11 51°13.597 2°56.109 2.9 65 11.9 101980 80
2005-05-24 06:27:15 51°13.597 2°56.109 2.5 81 11.9 101980 80
2005-05-24 06:27:20 51°13.597 2°56.109 2 98 11.9 101980 80
2005-05-24 06:27:26 51°13.597 2°56.109 2.4 96 11.9 101980 80
2005-05-24 06:27:30 51°13.597 2°56.109 2.9 97 11.9 101980 80
2005-05-24 06:27:35 51°13.597 2°56.109 2.5 83 11.9 101980 80
2005-05-24 06:27:41 51°13.597 2°56.109 2.4 43 11.9 101980 80
2005-05-24 06:27:46 51°13.597 2°56.109 2.2 101 11.9 101980 80
2005-05-24 06:27:50 51°13.597 2°56.108 2.7 121 11.9 101980 80
2005-05-24 06:27:56 51°13.597 2°56.107 2.8 118 11.9 101980 80
2005-05-24 06:28:01 51°13.597 2°56.106 3.6 99 11.9 101980 80
2005-05-24 06:28:06 51°13.598 2°56.105 4.1 88 11.9 101980 80
2005-05-24 06:28:10 51°13.598 2°56.104 6.6 101 11.9 101980 80
2005-05-24 06:28:15 51°13.598 2°56.102 3.9 40 11.9 101980 80
2005-05-24 06:28:21 51°13.599 2°56.099 3.1 147 11.9 101980 80
2005-05-24 06:28:26 51°13.599 2°56.096 3.3 138 11.9 101980 80
2005-05-24 06:28:30 51°13.6 2°56.094 3.8 227 11.9 101980 80
2005-05-24 06:28:36 51°13.601 2°56.09 3.3 146 11.9 101980 80
2005-05-24 06:28:41 51°13.602 2°56.086 3.8 108 11.9 101980 80
2005-05-24 06:28:46 51°13.603 2°56.082 4.9 131 11.9 101980 80
2005-05-24 06:28:51 51°13.604 2°56.076 4.3 99 11.9 101980 80
2005-05-24 06:28:57 51°13.606 2°56.069 4.5 117 11.9 101980 80
2005-05-24 06:29:01 51°13.607 2°56.063 3.6 150 11.9 101980 80
2005-05-24 06:29:06 51°13.609 2°56.057 4 160 11.9 101980 80
2005-05-24 06:29:11 51°13.611 2°56.049 2.7 144 11.9 101980 80
2005-05-24 06:29:15 51°13.613 2°56.043 2.4 136 11.9 101980 80
2005-05-24 06:29:21 51°13.615 2°56.034 2.7 135 11.9 101980 80
2005-05-24 06:29:26 51°13.617 2°56.026 2.6 148 11.9 101990 80
2005-05-24 06:29:31 51°13.619 2°56.017 2.1 141 11.9 101990 80
2005-05-24 06:29:36 51°13.62 2°56.009 2.1 146 11.9 101980 80
2005-05-24 06:29:41 51°13.623 2°56 4 148 11.9 101980 80
2005-05-24 06:29:46 51°13.625 2°55.991 4.7 123 11.9 101980 80
2005-05-24 06:29:51 51°13.626 2°55.982 5.7 159 11.9 101980 80
2005-05-24 06:29:56 51°13.629 2°55.974 6 151 11.9 101980 80
2005-05-24 06:30:02 51°13.631 2°55.964 4 190 11.9 101980 80
2005-05-24 06:30:07 51°13.634 2°55.954 3.5 184 11.9 101980 80
2005-05-24 06:30:11 51°13.636 2°55.946 4.6 196 11.9 101980 80
2005-05-24 06:30:16 51°13.638 2°55.937 2.8 201 11.9 101980 80
2005-05-24 06:30:22 51°13.641 2°55.928 3.8 211 11.9 101980 80
2005-05-24 06:30:26 51°13.643 2°55.92 3.3 219 11.9 101980 80
2005-05-24 06:30:31 51°13.646 2°55.91 4.7 163 11.9 101980 80
2005-05-24 06:30:36 51°13.648 2°55.902 6 165 11.9 101980 80
2005-05-24 06:30:41 51°13.652 2°55.892 4.9 137 11.9 101980 80
2005-05-24 06:30:46 51°13.655 2°55.883 5.1 153 12 101980 80
2005-05-24 06:30:51 51°13.658 2°55.873 5.3 157 12 101980 80
2005-05-24 06:30:56 51°13.662 2°55.864 5.5 133 12 101990 81
2005-05-24 06:31:02 51°13.665 2°55.854 3.5 153 12 101990 81
2005-05-24 06:31:06 51°13.669 2°55.846 3.3 137 12 101980 80
2005-05-24 06:31:11 51°13.673 2°55.837 6.6 116 12 101980 80
2005-05-24 06:31:16 51°13.677 2°55.829 6.9 115 12 101990 80
2005-05-24 06:31:21 51°13.681 2°55.82 5.9 108 12 101990 80
2005-05-24 06:31:26 51°13.685 2°55.812 6.3 109 12 101980 80
2005-05-24 06:31:31 51°13.69 2°55.803 7.6 113 12 101980 80
2005-05-24 06:31:36 51°13.694 2°55.795 5.7 114 12 101990 80
2005-05-24 06:31:41 51°13.699 2°55.786 4.4 115 12 101990 80
2005-05-24 06:31:46 51°13.704 2°55.777 4.5 119 12 101980 80
2005-05-24 06:31:51 51°13.709 2°55.768 4.3 114 12 101980 80
2005-05-24 06:31:56 51°13.714 2°55.76 4.1 135 12 101980 80
2005-05-24 06:32:02 51°13.719 2°55.75 5.7 138 12 101980 80
2005-05-24 06:32:06 51°13.723 2°55.743 5.9 121 12 101980 80
2005-05-24 06:32:11 51°13.728 2°55.735 4.9 112 12 101980 80
2005-05-24 06:32:16 51°13.733 2°55.728 4.5 111 12 101980 80
2005-05-24 06:32:21 51°13.739 2°55.721 5.3 88 12 101980 80
2005-05-24 06:32:26 51°13.744 2°55.714 4.4 72 12 101980 80
2005-05-24 06:32:31 51°13.749 2°55.707 4 118 12 101980 80
2005-05-24 06:32:36 51°13.755 2°55.7 2.7 110 12 101980 80
2005-05-24 06:32:42 51°13.761 2°55.694 4.5 77 12 101980 80
2005-05-24 06:32:47 51°13.766 2°55.688 4.3 77 12 101980 79
2005-05-24 06:32:51 51°13.772 2°55.683 1.9 57 12 101980 79
2005-05-24 06:32:56 51°13.777 2°55.678 2.4 61 12 101990 79
2005-05-24 06:33:01 51°13.784 2°55.673 2.4 75 12 101990 79
2005-05-24 06:33:06 51°13.789 2°55.669 2.1 57 11.9 101990 79
2005-05-24 06:33:11 51°13.797 2°55.664 1.4 133 11.9 101990 79
2005-05-24 06:33:15 51°13.802 2°55.661 1.2 124 12 101980 79
2005-05-24 06:33:21 51°13.81 2°55.656 1.8 62 12 101980 79
2005-05-24 06:33:26 51°13.817 2°55.653 1.5 68 12 101990 79
2005-05-24 06:33:31 51°13.824 2°55.65 2.2 134 12 101990 79
2005-05-24 06:33:36 51°13.831 2°55.648 2.6 130 12 101990 79
2005-05-24 06:33:42 51°13.839 2°55.646 1.9 121 12 101990 79
2005-05-24 06:33:46 51°13.845 2°55.644 2 138 12 101990 79
2005-05-24 06:33:51 51°13.852 2°55.643 1.6 7 12 101990 79
2005-05-24 06:33:55 51°13.858 2°55.642 1.3 7 12 101990 79
2005-05-24 06:34:02 51°13.867 2°55.642 0.8 47 12 101990 79
2005-05-24 06:34:06 51°13.873 2°55.642 1.1 59 12 101990 79
2005-05-24 06:34:11 51°13.88 2°55.642 1.7 78 12 101990 79
2005-05-24 06:34:16 51°13.886 2°55.643 2.1 65 12 101990 79
2005-05-24 06:34:22 51°13.893 2°55.645 1.4 27 12 101990 79
2005-05-24 06:34:26 51°13.9 2°55.646 1.3 23 12 101990 79
2005-05-24 06:34:31 51°13.906 2°55.648 2.3 55 12 101990 79
2005-05-24 06:34:36 51°13.913 2°55.651 1.6 81 12 101990 79
2005-05-24 06:34:42 51°13.919 2°55.654 1.1 44 12 101990 79
2005-05-24 06:34:46 51°13.924 2°55.656 1.3 44 12 101990 79
2005-05-24 06:34:51 51°13.93 2°55.659 2.2 6 12 101990 79
2005-05-24 06:34:56 51°13.934 2°55.662 3.9 353 12 101990 79
2005-05-24 06:35:01 51°13.937 2°55.664 4.4 21 12 101990 79
2005-05-24 06:35:06 51°13.94 2°55.666 4.1 10 12 101990 79
2005-05-24 06:35:11 51°13.941 2°55.666 4.1 354 12 101990 79
2005-05-24 06:35:15 51°13.942 2°55.666 4.1 347 12 101990 79
2005-05-24 06:35:21 51°13.942 2°55.665 5.2 325 12 101990 79
2005-05-24 06:35:26 51°13.941 2°55.662 4.7 327 12 101990 79
2005-05-24 06:35:31 51°13.94 2°55.658 6.5 359 12 101990 79
2005-05-24 06:35:35 51°13.939 2°55.654 6.6 357 12 101990 79
2005-05-24 06:35:41 51°13.938 2°55.646 5.3 325 12 101990 79
2005-05-24 06:35:46 51°13.937 2°55.639 6.3 312 12 101980 79
2005-05-24 06:35:51 51°13.938 2°55.63 5.6 317 12 101980 79
2005-05-24 06:35:56 51°13.939 2°55.62 6.3 228 12 101980 79
2005-05-24 06:36:01 51°13.941 2°55.609 5.6 318 12 101980 79
2005-05-24 06:36:06 51°13.945 2°55.601 5.3 317 12 101970 79
2005-05-24 06:36:11 51°13.95 2°55.591 4.9 308 12 101970 79
2005-05-24 06:36:16 51°13.955 2°55.583 5.7 289 12 101970 79
2005-05-24 06:36:21 51°13.961 2°55.575 4.5 306 12 101970 79
2005-05-24 06:36:26 51°13.967 2°55.57 5.7 292 12 101980 79
2005-05-24 06:36:31 51°13.974 2°55.564 5.9 268 12 101980 79
2005-05-24 06:36:36 51°13.981 2°55.558 4.6 295 12 101980 79
2005-05-24 06:36:41 51°13.989 2°55.551 3.2 287 12 101980 79
2005-05-24 06:36:46 51°13.996 2°55.545 3.3 286 12 101980 79
2005-05-24 06:36:50 51°14.003 2°55.539 4.1 313 12 101980 79
2005-05-24 06:36:55 51°14.011 2°55.533 3.4 317 12 101980 79
2005-05-24 06:37:01 51°14.021 2°55.525 4.1 281 12 101980 79
2005-05-24 06:37:06 51°14.029 2°55.519 4.2 301 12 101980 79
2005-05-24 06:37:11 51°14.038 2°55.512 4.2 315 12 101980 79
2005-05-24 06:37:16 51°14.047 2°55.505 4.1 313 12 101980 79
2005-05-24 06:37:22 51°14.057 2°55.497 2.1 305 12 101980 79
2005-05-24 06:37:26 51°14.066 2°55.49 3.4 42 12.1 101980 79
2005-05-24 06:37:30 51°14.073 2°55.484 4.4 327 12.1 101980 79
2005-05-24 06:37:36 51°14.083 2°55.476 4 345 12 101980 79
2005-05-24 06:37:41 51°14.092 2°55.469 4.1 322 12 101980 79
2005-05-24 06:37:46 51°14.102 2°55.46 4.9 226 12.1 101990 79
2005-05-24 06:37:51 51°14.112 2°55.451 5.5 277 12.1 101990 79
2005-05-24 06:37:56 51°14.12 2°55.444 5.4 317 12.1 101990 79
2005-05-24 06:38:01 51°14.131 2°55.435 4.4 307 12.1 101990 79
2005-05-24 06:38:06 51°14.139 2°55.427 3.9 254 12.1 101990 79
2005-05-24 06:38:11 51°14.15 2°55.418 3.3 304 12.1 101990 79
2005-05-24 06:38:16 51°14.158 2°55.41 3.7 244 12.1 101980 79
2005-05-24 06:38:21 51°14.168 2°55.4 3.7 308 12.1 101980 79
2005-05-24 06:38:26 51°14.176 2°55.391 3.1 325 12.1 101990 79
2005-05-24 06:38:30 51°14.185 2°55.382 4.1 331 12.1 101990 79
2005-05-24 06:38:36 51°14.195 2°55.371 4.5 333 12.1 101990 79
2005-05-24 06:38:41 51°14.206 2°55.359 5.4 322 12.1 101990 79
2005-05-24 06:38:46 51°14.215 2°55.349 7.9 332 12.1 101990 79
2005-05-24 06:38:50 51°14.223 2°55.338 4.9 231 12.1 101990 79
2005-05-24 06:38:56 51°14.234 2°55.323 5.6 308 12.1 101980 79
2005-05-24 06:39:01 51°14.244 2°55.31 6.5 312 12.1 101980 79
2005-05-24 06:39:06 51°14.253 2°55.296 6.2 322 12.1 101980 79
2005-05-24 06:39:11 51°14.263 2°55.281 7.2 322 12.1 101980 79
2005-05-24 06:39:15 51°14.271 2°55.268 7.1 324 12.1 101980 79
2005-05-24 06:39:21 51°14.281 2°55.25 7.3 322 12.1 101980 79
2005-05-24 06:39:26 51°14.289 2°55.235 7.1 326 12.1 101980 79
2005-05-24 06:39:31 51°14.299 2°55.217 10.5 321 12.1 101980 79
2005-05-24 06:39:36 51°14.306 2°55.202 9.4 319 12.1 101980 79
2005-05-24 06:39:40 51°14.314 2°55.187 8.3 302 12.1 101980 79
2005-05-24 06:39:46 51°14.323 2°55.169 7.7 311 12.1 101980 79
2005-05-24 06:39:51 51°14.333 2°55.15 6.8 323 12.1 101980 79
2005-05-24 06:39:56 51°14.341 2°55.135 6 310 12.1 101980 79
2005-05-24 06:40:01 51°14.352 2°55.118 4.7 336 12.1 101980 79
2005-05-24 06:40:06 51°14.361 2°55.105 6.6 320 12.1 101970 79
2005-05-24 06:40:11 51°14.372 2°55.088 8.3 231 12.1 101970 79
2005-05-24 06:40:16 51°14.381 2°55.075 8.4 310 12.2 101980 79
2005-05-24 06:40:21 51°14.392 2°55.058 8.9 303 12.2 101980 79
2005-05-24 06:40:26 51°14.401 2°55.044 8.5 305 12.2 101980 79
2005-05-24 06:40:31 51°14.412 2°55.026 7.7 301 12.2 101980 79
2005-05-24 06:40:35 51°14.421 2°55.014 8.7 306 12.2 101970 79
2005-05-24 06:40:41 51°14.434 2°54.996 8.3 301 12.2 101970 79
2005-05-24 06:40:46 51°14.445 2°54.984 8.4 293 12.1 101970 79
2005-05-24 06:40:50 51°14.455 2°54.971 7.8 295 12.1 101970 79
2005-05-24 06:40:55 51°14.467 2°54.957 8.5 297 12.1 101970 79
2005-05-24 06:41:01 51°14.482 2°54.939 6.9 296 12.1 101970 79
2005-05-24 06:41:06 51°14.494 2°54.927 7.3 304 12.1 101970 79
2005-05-24 06:41:10 51°14.507 2°54.916 7.1 296 12.1 101970 79
2005-05-24 06:41:16 51°14.525 2°54.902 7.4 294 12.1 101970 79
2005-05-24 06:41:21 51°14.54 2°54.891 6.9 287 12.1 101970 79
2005-05-24 06:41:26 51°14.554 2°54.881 7.2 281 12.2 101970 79
2005-05-24 06:41:31 51°14.571 2°54.868 7.7 297 12.2 101970 79
2005-05-24 06:41:36 51°14.585 2°54.856 8.7 289 12.2 101970 79
2005-05-24 06:41:41 51°14.601 2°54.843 7.7 291 12.2 101970 79
2005-05-24 06:41:46 51°14.615 2°54.831 8 294 12.2 101970 79
2005-05-24 06:41:51 51°14.632 2°54.818 9.7 292 12.2 101970 79
2005-05-24 06:41:55 51°14.645 2°54.809 9.4 292 12.2 101980 79
2005-05-24 06:42:01 51°14.665 2°54.798 7.3 285 12.2 101980 79
2005-05-24 06:42:06 51°14.68 2°54.791 7.4 280 12.2 101980 79
2005-05-24 06:42:11 51°14.698 2°54.783 6.8 271 12.2 101980 79
2005-05-24 06:42:15 51°14.712 2°54.779 6.7 277 12.2 101980 79
2005-05-24 06:42:21 51°14.731 2°54.772 8.1 274 12.2 101980 79
2005-05-24 06:42:26 51°14.746 2°54.767 7.4 279 12.2 101980 79
2005-05-24 06:42:31 51°14.765 2°54.762 6.5 290 12.2 101980 79
2005-05-24 06:42:35 51°14.778 2°54.758 6.3 285 12.2 101990 79
2005-05-24 06:42:41 51°14.799 2°54.753 6.2 275 12.2 101990 79
2005-05-24 06:42:46 51°14.814 2°54.748 6.3 282 12.2 101990 79
2005-05-24 06:42:50 51°14.829 2°54.743 6.5 283 12.2 101990 79
2005-05-24 06:42:56 51°14.848 2°54.735 6.5 286 12.2 101980 79
2005-05-24 06:43:01 51°14.863 2°54.729 7.4 287 12.2 101980 79
2005-05-24 06:43:06 51°14.88 2°54.72 7 288 12.2 101980 79
2005-05-24 06:43:10 51°14.894 2°54.712 7.6 294 12.2 101980 79
2005-05-24 06:43:16 51°14.912 2°54.701 7.8 291 12.2 101980 80
2005-05-24 06:43:21 51°14.93 2°54.69 7.8 292 12.2 101980 80
2005-05-24 06:43:26 51°14.944 2°54.682 6.8 292 12.2 101980 80
2005-05-24 06:43:31 51°14.96 2°54.672 9.3 290 12.2 101980 80
2005-05-24 06:43:36 51°14.977 2°54.663 9.1 284 12.2 101980 80
2005-05-24 06:43:41 51°14.994 2°54.654 8.9 286 12.2 101980 80
2005-05-24 06:43:46 51°15.009 2°54.647 8.3 286 12.2 101980 80
2005-05-24 06:43:50 51°15.023 2°54.639 8.6 277 12.2 101980 80
2005-05-24 06:43:55 51°15.039 2°54.631 10.1 276 12.2 101980 80
2005-05-24 06:44:01 51°15.058 2°54.622 7.4 282 12.2 101980 80
2005-05-24 06:44:06 51°15.074 2°54.614 10 281 12.2 101980 80
2005-05-24 06:44:10 51°15.086 2°54.607 9 278 12.2 101980 80
2005-05-24 06:44:16 51°15.103 2°54.598 10.3 275 12.2 101990 80
2005-05-24 06:44:21 51°15.119 2°54.588 10.3 274 12.2 101990 80
2005-05-24 06:44:26 51°15.133 2°54.58 9.5 275 12.2 101980 80
2005-05-24 06:44:31 51°15.149 2°54.57 8.3 275 12.2 101980 80
2005-05-24 06:44:36 51°15.163 2°54.562 8.7 279 12.2 101990 80
2005-05-24 06:44:41 51°15.18 2°54.552 7.8 290 12.2 101990 80
2005-05-24 06:44:46 51°15.194 2°54.545 7.9 284 12.2 101980 80
2005-05-24 06:44:51 51°15.211 2°54.536 7.9 302 12.2 101980 80
2005-05-24 06:44:56 51°15.225 2°54.528 6.6 276 12.2 101980 80
2005-05-24 06:45:01 51°15.242 2°54.519 7.8 280 12.2 101980 80
2005-05-24 06:45:06 51°15.256 2°54.512 7.9 286 12.2 101980 80
2005-05-24 06:45:10 51°15.27 2°54.506 8 282 12.2 101980 80
2005-05-24 06:45:16 51°15.288 2°54.498 8 287 12.2 101980 80
2005-05-24 06:45:21 51°15.306 2°54.49 8.5 291 12.2 101980 80
2005-05-24 06:45:26 51°15.321 2°54.483 9 281 12.2 101980 80
2005-05-24 06:45:31 51°15.337 2°54.476 8.9 289 12.2 101980 80
2005-05-24 06:45:35 51°15.351 2°54.468 7.6 296 12.2 101980 80
2005-05-24 06:45:41 51°15.37 2°54.458 10.1 288 12.2 101980 80
2005-05-24 06:45:46 51°15.385 2°54.45 9.6 286 12.2 101990 80
2005-05-24 06:45:51 51°15.401 2°54.441 8.7 291 12.2 101990 80
2005-05-24 06:45:55 51°15.415 2°54.433 8.3 296 12.2 101980 80
2005-05-24 06:46:01 51°15.435 2°54.422 7.6 286 12.2 101980 80
2005-05-24 06:46:06 51°15.45 2°54.414 8.1 284 12.2 101980 80
2005-05-24 06:46:10 51°15.465 2°54.406 9.2 285 12.2 101980 80
2005-05-24 06:46:15 51°15.481 2°54.397 7.9 284 12.2 101980 80
2005-05-24 06:46:21 51°15.501 2°54.387 7.9 283 12.2 101980 80
2005-05-24 06:46:26 51°15.516 2°54.38 7.1 282 12.2 101980 80
2005-05-24 06:46:31 51°15.534 2°54.372 6.5 281 12.2 101980 80
2005-05-24 06:46:36 51°15.55 2°54.366 7.5 284 12.2 101980 80
2005-05-24 06:46:40 51°15.565 2°54.36 7.3 282 12.2 101980 80
2005-05-24 06:46:46 51°15.584 2°54.354 6.6 292 12.2 101980 80
2005-05-24 06:46:51 51°15.603 2°54.347 9.5 272 12.2 101980 80
2005-05-24 06:46:55 51°15.617 2°54.343 7.4 280 12.2 101980 80
2005-05-24 06:47:01 51°15.636 2°54.339 7.4 265 12.2 101980 80
2005-05-24 06:47:06 51°15.654 2°54.334 9.2 274 12.2 101980 80
2005-05-24 06:47:11 51°15.673 2°54.329 7.5 286 12.2 101980 80
2005-05-24 06:47:15 51°15.688 2°54.326 7.5 285 12.2 101990 80
2005-05-24 06:47:21 51°15.707 2°54.321 9.6 273 12.2 101990 80
2005-05-24 06:47:26 51°15.725 2°54.316 9.3 265 12.2 101990 80
2005-05-24 06:47:30 51°15.741 2°54.311 10 271 12.2 101990 80
2005-05-24 06:47:36 51°15.762 2°54.303 9 288 12.2 101990 80
2005-05-24 06:47:41 51°15.778 2°54.296 9.7 285 12.2 101990 80
2005-05-24 06:47:46 51°15.795 2°54.288 9.8 290 12.2 101990 80
2005-05-24 06:47:50 51°15.811 2°54.281 8.9 282 12.2 101990 80
2005-05-24 06:47:55 51°15.829 2°54.273 10 286 12.2 101990 80
2005-05-24 06:48:01 51°15.85 2°54.263 8.1 293 12.2 101990 80
2005-05-24 06:48:06 51°15.866 2°54.256 7.8 296 12.2 101980 80
2005-05-24 06:48:11 51°15.885 2°54.247 8.2 289 12.2 101980 80
2005-05-24 06:48:16 51°15.901 2°54.241 10.4 279 12.2 101980 79
2005-05-24 06:48:21 51°15.921 2°54.233 7.2 287 12.2 101980 79
2005-05-24 06:48:26 51°15.937 2°54.228 7.4 290 12.2 101980 79
2005-05-24 06:48:30 51°15.952 2°54.221 9.7 274 12.2 101980 79
2005-05-24 06:48:36 51°15.97 2°54.215 9 274 12.2 101990 79
2005-05-24 06:48:41 51°15.988 2°54.207 8.7 288 12.2 101990 79
2005-05-24 06:48:46 51°16.003 2°54.201 8.1 287 12.2 101980 80
2005-05-24 06:48:51 51°16.02 2°54.193 9.5 280 12.2 101980 80
2005-05-24 06:48:56 51°16.032 2°54.186 8.9 281 12.3 101980 80
2005-05-24 06:49:01 51°16.047 2°54.178 9.2 269 12.3 101980 80
2005-05-24 06:49:06 51°16.059 2°54.173 10.5 266 12.3 101980 80
2005-05-24 06:49:11 51°16.072 2°54.166 5.9 256 12.3 101980 80
2005-05-24 06:49:16 51°16.083 2°54.162 5.9 260 12.3 101980 80
2005-05-24 06:49:21 51°16.095 2°54.159 7 235 12.3 101980 80
2005-05-24 06:49:26 51°16.106 2°54.16 7.3 236 12.3 101980 80
2005-05-24 06:49:31 51°16.117 2°54.163 6.5 214 12.3 101980 80
2005-05-24 06:49:36 51°16.126 2°54.168 6.1 204 12.3 101980 80
2005-05-24 06:49:41 51°16.133 2°54.175 3.2 198 12.3 101980 80
2005-05-24 06:49:46 51°16.139 2°54.181 3.7 198 12.3 101980 80
2005-05-24 06:49:51 51°16.144 2°54.19 5.8 175 12.3 101980 80
2005-05-24 06:49:56 51°16.149 2°54.199 7.3 168 12.3 101980 80
2005-05-24 06:50:01 51°16.152 2°54.207 7.5 171 12.3 101980 80
2005-05-24 06:50:06 51°16.156 2°54.215 6.2 171 12.3 101990 80
2005-05-24 06:50:11 51°16.16 2°54.223 5.9 181 12.3 101990 80
2005-05-24 06:50:15 51°16.164 2°54.231 5.3 178 12.3 101990 80
2005-05-24 06:50:21 51°16.169 2°54.239 4.6 177 12.3 101990 80
2005-05-24 06:50:26 51°16.173 2°54.246 6.3 187 12.3 101990 80
2005-05-24 06:50:31 51°16.179 2°54.254 4.4 186 12.3 101990 80
2005-05-24 06:50:36 51°16.183 2°54.26 4.8 184 12.3 101980 80
2005-05-24 06:50:41 51°16.188 2°54.267 3.6 191 12.3 101980 80
2005-05-24 06:50:46 51°16.192 2°54.272 4.8 183 12.3 101980 80
2005-05-24 06:50:51 51°16.197 2°54.278 6.4 195 12.3 101980 80
2005-05-24 06:50:55 51°16.201 2°54.282 5 190 12.3 101980 80
2005-05-24 06:51:01 51°16.207 2°54.287 3.8 194 12.3 101980 80
2005-05-24 06:51:06 51°16.211 2°54.291 4.3 206 12.3 101990 81
2005-05-24 06:51:11 51°16.216 2°54.295 8.5 208 12.3 101990 81
2005-05-24 06:51:15 51°16.219 2°54.297 7.9 214 12.4 101990 81
2005-05-24 06:51:21 51°16.224 2°54.3 9.6 215 12.4 101990 81
2005-05-24 06:51:26 51°16.228 2°54.301 8.3 215 12.4 101990 81
2005-05-24 06:51:31 51°16.231 2°54.303 9.9 218 12.4 101990 81
2005-05-24 06:51:36 51°16.233 2°54.303 10.4 219 12.4 101990 80
2005-05-24 06:51:41 51°16.236 2°54.303 9.2 221 12.4 101990 80
2005-05-24 06:51:46 51°16.238 2°54.303 8.5 222 12.4 101980 79
2005-05-24 06:51:51 51°16.239 2°54.303 8.8 227 12.4 101980 79
2005-05-24 06:51:56 51°16.24 2°54.302 10.1 223 12.4 101980 79
2005-05-24 06:52:01 51°16.241 2°54.301 10.5 233 12.4 101980 79
2005-05-24 06:52:06 51°16.242 2°54.3 10.5 233 12.4 101980 79
2005-05-24 06:52:10 51°16.242 2°54.299 9.1 232 12.4 101980 79
2005-05-24 06:52:16 51°16.243 2°54.298 9.6 229 12.4 101990 79
2005-05-24 06:52:21 51°16.244 2°54.297 8.9 230 12.4 101990 79
2005-05-24 06:52:26 51°16.245 2°54.296 9.4 231 12.3 101980 79
2005-05-24 06:52:31 51°16.246 2°54.294 9.3 238 12.3 101980 79
2005-05-24 06:52:36 51°16.247 2°54.293 8.2 239 12.4 101980 79
2005-05-24 06:52:41 51°16.247 2°54.292 7.6 240 12.4 101980 79
2005-05-24 06:52:46 51°16.248 2°54.291 8.9 242 12.3 101980 79
2005-05-24 06:52:51 51°16.249 2°54.289 8.1 248 12.3 101980 79
2005-05-24 06:52:55 51°16.249 2°54.288 7.1 252 12.4 101980 80
2005-05-24 06:53:01 51°16.25 2°54.287 8.9 242 12.4 101980 80
2005-05-24 06:53:06 51°16.251 2°54.285 9.9 243 12.4 101980 80
2005-05-24 06:53:11 51°16.251 2°54.283 10.7 242 12.4 101980 80
2005-05-24 06:53:16 51°16.252 2°54.282 10.7 241 12.4 101980 80
2005-05-24 06:53:21 51°16.252 2°54.28 9.4 239 12.4 101980 80
2005-05-24 06:53:26 51°16.253 2°54.278 8.5 251 12.4 101980 80
2005-05-24 06:53:31 51°16.253 2°54.276 9.2 248 12.4 101980 80
2005-05-24 06:53:36 51°16.254 2°54.275 9 248 12.4 101970 80
2005-05-24 06:53:41 51°16.254 2°54.273 8.3 253 12.4 101970 80
2005-05-24 06:53:46 51°16.254 2°54.271 7.6 251 12.3 101980 80
2005-05-24 06:53:51 51°16.254 2°54.269 5.9 256 12.3 101980 80
2005-05-24 06:53:56 51°16.254 2°54.267 6.6 254 12.3 101970 80
2005-05-24 06:54:01 51°16.254 2°54.264 6 255 12.3 101970 80
2005-05-24 06:54:06 51°16.255 2°54.263 6.3 257 12.3 101980 80
2005-05-24 06:54:11 51°16.255 2°54.26 6.7 258 12.3 101980 80
2005-05-24 06:54:16 51°16.256 2°54.258 7 256 12.3 101980 80
2005-05-24 06:54:21 51°16.256 2°54.256 6.4 256 12.3 101980 80
2005-05-24 06:54:26 51°16.256 2°54.254 7.3 258 12.3 101980 80
2005-05-24 06:54:31 51°16.257 2°54.252 8 258 12.3 101980 80
2005-05-24 06:54:36 51°16.257 2°54.25 8.4 260 12.4 101980 80
2005-05-24 06:54:41 51°16.257 2°54.248 10.6 262 12.4 101980 80
2005-05-24 06:54:46 51°16.257 2°54.246 6.5 259 12.3 101980 80
2005-05-24 06:54:50 51°16.257 2°54.244 12.4 267 12.3 101980 80
2005-05-24 06:54:56 51°16.258 2°54.242 10.2 267 12.3 101970 80
2005-05-24 06:55:01 51°16.259 2°54.24 10.6 265 12.3 101970 80
2005-05-24 06:55:06 51°16.259 2°54.238 9.3 266 12.3 101980 80
2005-05-24 06:55:11 51°16.259 2°54.236 7.5 258 12.3 101980 80
2005-05-24 06:55:16 51°16.258 2°54.234 7.5 260 12.3 101980 80
2005-05-24 06:55:21 51°16.259 2°54.231 9.8 262 12.3 101980 80
2005-05-24 06:55:26 51°16.259 2°54.23 9.5 266 12.3 101980 80
2005-05-24 06:55:31 51°16.258 2°54.227 10.7 263 12.3 101980 80
2005-05-24 06:55:36 51°16.259 2°54.225 12.1 265 12.3 101970 80
2005-05-24 06:55:41 51°16.259 2°54.223 10.8 269 12.3 101970 80
2005-05-24 06:55:46 51°16.259 2°54.221 9.4 262 12.3 101980 80
2005-05-24 06:55:51 51°16.259 2°54.219 13 270 12.3 101980 80
2005-05-24 06:55:56 51°16.259 2°54.217 12.2 269 12.3 101980 80
2005-05-24 06:56:01 51°16.259 2°54.215 10.8 268 12.3 101980 80
2005-05-24 06:56:06 51°16.259 2°54.213 11.6 274 12.3 101970 80
2005-05-24 06:56:10 51°16.259 2°54.211 11.5 270 12.3 101970 80
2005-05-24 06:56:16 51°16.26 2°54.208 12.3 271 12.3 101980 80
2005-05-24 06:56:21 51°16.259 2°54.206 10.8 272 12.3 101980 80
2005-05-24 06:56:26 51°16.259 2°54.204 12.5 275 12.3 101970 80
2005-05-24 06:56:31 51°16.26 2°54.202 8.5 266 12.3 101970 80
2005-05-24 06:56:36 51°16.26 2°54.2 9.9 264 12.3 101980 80
2005-05-24 06:56:41 51°16.259 2°54.198 11.5 272 12.3 101980 80
2005-05-24 06:56:46 51°16.259 2°54.196 11.2 276 12.3 101970 80
2005-05-24 06:56:51 51°16.26 2°54.194 11.2 274 12.3 101970 80
2005-05-24 06:56:56 51°16.26 2°54.192 12 276 12.3 101970 80
2005-05-24 06:57:01 51°16.259 2°54.191 12.8 274 12.3 101970 80
2005-05-24 06:57:06 51°16.259 2°54.189 13 277 12.3 101980 80
2005-05-24 06:57:11 51°16.259 2°54.187 11.5 280 12.3 101980 80
2005-05-24 06:57:16 51°16.259 2°54.185 11.4 282 12.3 101970 80
2005-05-24 06:57:21 51°16.259 2°54.183 10.3 284 12.3 101970 80
2005-05-24 06:57:26 51°16.259 2°54.181 9.6 283 12.3 101980 80
2005-05-24 06:57:31 51°16.26 2°54.179 10.7 281 12.3 101980 80
2005-05-24 06:57:36 51°16.259 2°54.177 10.3 289 12.3 101970 80
2005-05-24 06:57:41 51°16.259 2°54.175 11 279 12.3 101970 80
2005-05-24 06:57:46 51°16.259 2°54.173 9.5 285 12.3 101970 80
2005-05-24 06:57:51 51°16.259 2°54.171 10.8 281 12.3 101970 80
2005-05-24 06:57:55 51°16.259 2°54.17 11.2 279 12.4 101970 80
2005-05-24 06:58:01 51°16.259 2°54.167 10.4 282 12.4 101970 80
2005-05-24 06:58:06 51°16.259 2°54.166 10.4 280 12.4 101970 80
2005-05-24 06:58:11 51°16.259 2°54.164 9.7 281 12.4 101970 80
2005-05-24 06:58:16 51°16.259 2°54.162 9.8 281 12.3 101970 80
2005-05-24 06:58:21 51°16.259 2°54.16 9.8 288 12.3 101970 80
2005-05-24 06:58:26 51°16.259 2°54.158 10.9 285 12.4 101980 80
2005-05-24 06:58:31 51°16.258 2°54.156 9.6 283 12.4 101980 80
2005-05-24 06:58:36 51°16.258 2°54.155 10.3 283 12.4 101980 80
2005-05-24 06:58:41 51°16.259 2°54.153 9.9 284 12.4 101980 80
2005-05-24 06:58:46 51°16.259 2°54.15 9.6 285 12.4 101970 80
2005-05-24 06:58:51 51°16.26 2°54.146 10.7 287 12.4 101970 80
2005-05-24 06:58:55 51°16.261 2°54.141 10.4 286 12.4 101970 80
2005-05-24 06:59:01 51°16.264 2°54.132 9.5 291 12.4 101970 80
2005-05-24 06:59:06 51°16.267 2°54.123 9.5 295 12.4 101980 80
2005-05-24 06:59:11 51°16.272 2°54.11 10.6 306 12.4 101980 80
2005-05-24 06:59:15 51°16.276 2°54.099 10.3 305 12.4 101970 80
2005-05-24 06:59:21 51°16.283 2°54.079 11.4 305 12.4 101970 80
2005-05-24 06:59:26 51°16.289 2°54.063 12.5 305 12.4 101970 80
2005-05-24 06:59:31 51°16.296 2°54.042 12.5 305 12.4 101970 80
2005-05-24 06:59:36 51°16.304 2°54.02 13.6 300 12.4 101970 80
2005-05-24 06:59:41 51°16.312 2°53.998 12.4 311 12.4 101970 80
2005-05-24 06:59:46 51°16.32 2°53.977 12.9 308 12.4 101970 80
2005-05-24 06:59:51 51°16.33 2°53.951 12.4 304 12.4 101970 80
2005-05-24 06:59:56 51°16.338 2°53.929 11.4 312 12.4 101960 81
2005-05-24 07:00:01 51°16.349 2°53.902 13.7 44 12.4 101960 81
2005-05-24 07:00:06 51°16.357 2°53.88 13 313 12.4 101960 81
2005-05-24 07:00:10 51°16.365 2°53.859 11.7 314 12.4 101960 81
2005-05-24 07:00:16 51°16.377 2°53.829 13.9 315 12.4 101950 80
2005-05-24 07:00:21 51°16.386 2°53.804 13.6 230 12.4 101950 80
2005-05-24 07:00:26 51°16.397 2°53.776 13.2 313 12.4 101950 80
2005-05-24 07:00:30 51°16.404 2°53.758 13.8 311 12.4 101950 80
2005-05-24 07:00:36 51°16.417 2°53.727 13 315 12.4 101950 80
2005-05-24 07:00:41 51°16.427 2°53.702 14 314 12.4 101950 80
2005-05-24 07:00:46 51°16.439 2°53.674 13 44 12.4 101950 80
2005-05-24 07:00:51 51°16.449 2°53.649 12.8 41 12.4 101950 80
2005-05-24 07:00:56 51°16.461 2°53.625 13.2 310 12.4 101940 80
2005-05-24 07:01:01 51°16.471 2°53.604 14.4 307 12.4 101940 80
2005-05-24 07:01:06 51°16.482 2°53.58 14 305 12.4 101950 80
2005-05-24 07:01:11 51°16.495 2°53.554 12 315 12.4 101950 80
2005-05-24 07:01:16 51°16.506 2°53.531 12.8 310 12.4 101950 80
2005-05-24 07:01:21 51°16.517 2°53.51 12.1 315 12.4 101950 80
2005-05-24 07:01:26 51°16.529 2°53.485 12.4 306 12.4 101950 80
2005-05-24 07:01:30 51°16.539 2°53.464 11.5 311 12.4 101950 80
2005-05-24 07:01:36 51°16.554 2°53.44 13.5 310 12.4 101960 80
2005-05-24 07:01:41 51°16.568 2°53.416 13.5 307 12.4 101960 80
2005-05-24 07:01:46 51°16.58 2°53.397 13.7 304 12.4 101950 80
2005-05-24 07:01:51 51°16.594 2°53.377 12.9 300 12.4 101950 80
2005-05-24 07:01:56 51°16.608 2°53.357 12.6 299 12.4 101960 80
2005-05-24 07:02:01 51°16.623 2°53.335 11.5 306 12.4 101960 80
2005-05-24 07:02:06 51°16.635 2°53.317 10.4 313 12.4 101960 80
2005-05-24 07:02:11 51°16.651 2°53.295 12.2 301 12.4 101960 80
2005-05-24 07:02:15 51°16.662 2°53.279 11.2 299 12.4 101960 80
2005-05-24 07:02:21 51°16.679 2°53.256 12.5 303 12.4 101960 80
2005-05-24 07:02:26 51°16.691 2°53.239 13.1 298 12.4 101960 80
2005-05-24 07:02:30 51°16.704 2°53.221 12.1 296 12.4 101960 80
2005-05-24 07:02:35 51°16.719 2°53.202 11.3 291 12.4 101970 80
2005-05-24 07:02:41 51°16.734 2°53.181 11.9 305 12.4 101970 80
2005-05-24 07:02:46 51°16.747 2°53.161 12.5 299 12.4 101970 80
2005-05-24 07:02:51 51°16.763 2°53.14 11.9 308 12.4 101970 80
2005-05-24 07:02:55 51°16.774 2°53.124 11.3 305 12.4 101970 80
2005-05-24 07:03:01 51°16.788 2°53.103 11.7 301 12.4 101970 80
2005-05-24 07:03:06 51°16.802 2°53.084 12.2 305 12.4 101970 80
2005-05-24 07:03:10 51°16.814 2°53.066 11.6 307 12.4 101970 80
2005-05-24 07:03:16 51°16.829 2°53.045 12.1 305 12.4 101960 80
2005-05-24 07:03:21 51°16.844 2°53.025 11.7 296 12.4 101960 80
2005-05-24 07:03:26 51°16.855 2°53.008 10.8 292 12.4 101970 80
2005-05-24 07:03:30 51°16.866 2°52.991 12.2 300 12.4 101970 80
2005-05-24 07:03:35 51°16.878 2°52.973 12 301 12.4 101970 80
2005-05-24 07:03:41 51°16.892 2°52.951 12.1 300 12.4 101970 80
2005-05-24 07:03:46 51°16.902 2°52.933 11.8 301 12.4 101980 80
2005-05-24 07:03:51 51°16.915 2°52.912 11.9 303 12.4 101980 80
2005-05-24 07:03:55 51°16.924 2°52.896 11.7 308 12.4 101970 80
2005-05-24 07:04:01 51°16.938 2°52.872 12.4 307 12.4 101970 80
2005-05-24 07:04:06 51°16.949 2°52.854 11.8 304 12.4 101970 80
2005-05-24 07:04:11 51°16.963 2°52.832 12.1 302 12.4 101970 80
2005-05-24 07:04:16 51°16.974 2°52.815 13.4 301 12.4 101970 80
2005-05-24 07:04:21 51°16.989 2°52.796 10.9 302 12.4 101970 80
2005-05-24 07:04:26 51°17.002 2°52.781 10.8 296 12.4 101970 80
2005-05-24 07:04:31 51°17.019 2°52.764 11.2 290 12.4 101970 80
2005-05-24 07:04:36 51°17.032 2°52.75 10.5 292 12.4 101980 80
2005-05-24 07:04:41 51°17.049 2°52.734 10.5 293 12.4 101980 80
2005-05-24 07:04:46 51°17.062 2°52.72 10.4 297 12.4 101970 80
2005-05-24 07:04:51 51°17.079 2°52.704 11.3 298 12.4 101970 80
2005-05-24 07:04:56 51°17.093 2°52.688 10.6 305 12.4 101970 80
2005-05-24 07:05:01 51°17.108 2°52.669 12.5 298 12.4 101970 80
2005-05-24 07:05:06 51°17.121 2°52.654 11.7 298 12.4 101970 80
2005-05-24 07:05:11 51°17.136 2°52.634 12.6 307 12.4 101970 80
2005-05-24 07:05:16 51°17.148 2°52.618 13.3 302 12.4 101980 80